[Iaude] MPEC N95: 2024 NZ1 [a=1.57,e=0.45,i=10.0,H=24.0]
    mpec at cfa.harvard.edu 
    mpec at cfa.harvard.edu
       
    Mon Jul  8 07:27:30 EDT 2024
    
    
  
M.P.E.C. 2024-N95                                  Issued 2024 July 8, 11:25 UT
     The Minor Planet Electronic Circulars contain information on unusual
         minor planets, routine data on comets and natural satellites,
         and occasional editorial announcements.  They are published
    on behalf of Division F of the International Astronomical Union by the
          Minor Planet Center, Smithsonian Astrophysical Observatory,
                          Cambridge, MA 02138, U.S.A.
			  
             Prepared using the Tamkin Foundation Computer Network
                              MPC at CFA.HARVARD.EDU
            URL https://www.minorplanetcenter.net/    ISSN 1523-6714
                                    2024 NZ1                                    
Observations:
     K24N01Z* C2024 07 06.47022320 31 37.181-27 16 53.09         21.25wXEN095F52
     K24N01Z  C2024 07 06.48005620 31 37.639-27 16 29.09         21.34wXEN095F52
     K24N01Z  C2024 07 06.48989720 31 38.131-27 16 04.34         21.54wXEN095F52
     K24N01Z  C2024 07 06.55226820 31 41.168-27 13 27.24         21.27GVEN095F51
     K24N01Z  C2024 07 06.55291120 31 41.200-27 13 25.60         21.20GVEN095F51
     K24N01Z |C2024 07 07.30091020 32 35.120-26 40 19.80         20.9 GVEN095807
     K24N01Z |C2024 07 07.30641020 32 35.380-26 40 05.10         21.1 GVEN095807
     K24N01Z |C2024 07 07.31192020 32 35.690-26 39 50.20         21.2 GVEN095807
     K24N01Z 3C2024 07 07.56700520 32 53.739-26 28 53.35         21.18GVEN095T14
     K24N01Z 3C2024 07 07.56798320 32 53.789-26 28 50.56         21.17GVEN095T14
     K24N01Z 3C2024 07 07.56895920 32 53.838-26 28 47.85         21.11GVEN095T14
     K24N01Z KC2024 07 08.42514 20 33 58.23 -25 47 46.1          21.2 RVEN095291
     K24N01Z KC2024 07 08.43120 20 33 58.58 -25 47 27.8          21.0 RVEN095291
     K24N01Z KC2024 07 08.43723 20 33 58.91 -25 47 09.3          21.0 RVEN095291
Observer details:
291 LPL/Spacewatch II.  Observer T. H. Bressi.  1.8-m f/2.7 reflector + CCD.
807 Cerro Tololo Observatory, La Serena.  Observers T. Linder, R. Holmes.
    0.61-m f/6.8 Ritchey-Chretien + CCD.
F51 Pan-STARRS 1, Haleakala.  Observers J. Herman, T. Lowe, P. Minguez, A.
    Schultz, I. Smith.  Measurers K. Chambers, T. de Boer, J. Fairlamb, H.
    Gao, M. Huber, C.-C. Lin, E. Magnier, Y. Ramanjooloo, R. Wainscoat, R.
    Weryk.  1.8-m Ritchey-Chretien + CCD.
F52 Pan-STARRS 2, Haleakala.  Observers J. Herman, T. Lowe, P. Minguez, A.
    Schultz, I. Smith.  Measurers K. Chambers, T. de Boer, J. Fairlamb, H.
    Gao, M. Huber, C.-C. Lin, E. Magnier, Y. Ramanjooloo, R. Wainscoat, R.
    Weryk.  1.8-m Ritchey-Chretien + CCD.
T14 Canada-France-Hawaii Telescope, Maunakea.  Observers R. Wainscoat, H.
    Januszewski, H. Flewelling.  Measurers R. Weryk, R. Wainscoat.  3.6-m
    f/4.1 reflector + CCD.
Orbital elements:
2024 NZ1                                                 Earth MOID = 0.0446 AU
Epoch 2024 Mar. 31.0 TT = JDT 2460400.5                 MPC                     
M 276.06417              (2000.0)            P               Q                  
n   0.50076215     Peri.   76.00667     +0.97119435     -0.17788071             
a   1.5705378      Node   294.04446     +0.08760332     +0.88532813             
e   0.4533296      Incl.    9.99843     +0.22160145     +0.42959581             
P   1.97           H   24.04          G   0.15           U   8                  
Residuals in seconds of arc
240706 F52  0.1+  0.1+    240707 807  0.2+  0.3+    240707 T14  0.0   0.1-
240706 F52  0.2-  0.2-    240707 807  0.1-  0.1-    240708 291  0.2-  0.2+
240706 F52  0.0   0.1+    240707 807  0.2+  0.3-    240708 291  0.0   0.1-
240706 F51  0.1+  0.0     240707 T14  0.0   0.1-    240708 291  0.1-  0.0
240706 F51  0.1+  0.0     240707 T14  0.0   0.1-
Ephemeris:
2024 NZ1                 a,e,i = 1.57, 0.45, 10                  q = 0.8586
Date    TT    R. A. (2000) Decl.     Delta      r    Elong.  Phase     V
2024 06 08    20 00 41.7 -34 47 58   0.4372  1.3791   140.1    28.2    24.2
...
2024 06 23    20 17 18.5 -32 45 54   0.2896  1.2754   150.0    23.5    23.0
...
2024 07 01    20 25 35.4 -30 15 17   0.2192  1.2196   155.5    20.2    22.2
...
2024 07 07    20 32 14.2 -26 53 45   0.1701  1.1779   159.8    17.3    21.5
2024 07 08    20 33 27.3 -26 07 56   0.1623  1.1710   160.5    16.8    21.3
2024 07 09    20 34 43.6 -25 17 22   0.1545  1.1640   161.2    16.3    21.2
...
2024 07 15    20 44 05.8 -17 47 21   0.1105  1.1230   164.0    14.5    20.3
...
2024 07 23    21 08 40.5 +07 32 05   0.06251 1.0699   148.8    29.4    19.4
...
2024 08 07    05 42 18.5 +73 29 01   0.08769 0.9787    63.8   111.5    23.0
A. U. Tomatic                (C) Copyright 2024 MPC           M.P.E.C. 2024-N95
    
    
More information about the Iaude
mailing list